Location: Gand�
(15.0971°N, 12.6564°W)
Time: 15:19:08
(UTC+00:00)

Hubble Space Telescope - Pass Details

Date: 07 August 2020
Orbit: 536 x 540 km, 28.5° (Epoch: 19 September)

Event Time Altitude Azimuth Distance (km) Brightness Sun altitude
Exits shadow 04:43:44 55° 59° (ENE) 645 1.4 -25.7°
Drops below altitude 10° 04:47:00 10° 63° (ENE) 1,781 4.5 -25.0°
Sets 04:49:16 0° 64° (ENE) 2,673 5.7 -24.5°
